Coolidge Muni, Coolidge, AZ

2:02 AM MST on December 07, 2019 (GMT -0700)
Coolidge Muni, Coolidge

Weather History for KP08 - September, 2019

Change the Weather History Date:

Thursday, September 5, 2019

  Actual Average (KCGZ) Record (KCGZ)
Temperature  
Mean Temperature 92 °F -  
Max Temperature 105 °F 97 °F 105 °F (2002)
Min Temperature 80 °F 72 °F 66 °F (1999)
Cooling Degree Days 28    
Growing Degree Days 42 (Base 50)    
Moisture  
Dew Point 53 °F    
Average Humidity 28    
Maximum Humidity 54    
Minimum Humidity 12    
Precipitation  
Precipitation 0.00 in - - ()
Sea Level Pressure  
Sea Level Pressure 29.94 in    
Wind  
Wind Speed 6 mph ()    
Max Wind Speed 16 mph    
Max Gust Speed 22 mph    
Visibility 10.0 miles    
Events      
Averages and records for this station are not official NWS values.
T = Trace of Precipitation, MM = Missing Value Source: Averaged Metar Reports

Daily Weather History Graph

Daily Weather History Graph

Search for Another Location

Airport or City:

Astronomy

Sep. 05, 2019 Rise Set
Actual Time 6:02 AM MST 6:45 PM MST
Civil Twilight 5:37 AM MST 7:10 PM MST
Nautical Twilight 5:08 AM MST 7:39 PM MST
Astronomical Twilight 4:37 AM MST 8:10 PM MST
Moon 12:51 PM MST (9/5) 11:26 PM MST (9/5)
Length of Visible Light 13h 32m
Length of Day
12h 42m
Waxing Crescent, 46% of the Moon is Illuminated
Sep 5
Waxing Crescent
Sep 5
First Quarter
Sep 13
Full
Sep 21
Last Quarter
Sep 28
New

Hourly Weather History & Observations

Time (MST) Temp. Heat Index Dew Point Humidity Pressure Visibility Wind Dir Wind Speed Gust Speed Precip Events Conditions
12:10 AM 89.6 °F 90.1 °F 62.6 °F 40% 29.94 in 10.0 mi SSE 6.9 mph - N/A   Clear
12:35 AM 89.6 °F 90.1 °F 62.6 °F 40% 29.95 in 10.0 mi SE 4.6 mph - N/A   Clear
12:55 AM 87.8 °F 88.5 °F 62.6 °F 43% 29.95 in 10.0 mi Calm Calm - N/A   Clear
1:15 AM 87.8 °F 88.5 °F 62.6 °F 43% 29.95 in 10.0 mi SSE 3.5 mph - N/A   Clear
1:35 AM 86.0 °F 86.6 °F 62.6 °F 45% 29.95 in 10.0 mi SE 5.8 mph - N/A   Clear
1:55 AM 86.0 °F 86.6 °F 62.6 °F 45% 29.95 in 10.0 mi ESE 5.8 mph - N/A   Clear
2:15 AM 86.0 °F 86.6 °F 62.6 °F 45% 29.94 in 10.0 mi ESE 5.8 mph - N/A   Clear
2:35 AM 86.0 °F 86.6 °F 62.6 °F 45% 29.94 in 10.0 mi ESE 5.8 mph - N/A   Clear
2:55 AM 84.2 °F 85.0 °F 62.6 °F 48% 29.94 in 10.0 mi East 5.8 mph - N/A   Clear
3:15 AM 84.2 °F 85.0 °F 62.6 °F 48% 29.94 in 10.0 mi ESE 5.8 mph - N/A   Clear
3:35 AM 84.2 °F 85.0 °F 62.6 °F 48% 29.94 in 10.0 mi East 5.8 mph - N/A   Clear
3:55 AM 84.2 °F 85.0 °F 62.6 °F 48% 29.95 in 10.0 mi ESE 3.5 mph - N/A   Clear
4:15 AM 82.4 °F 83.4 °F 62.6 °F 51% 29.95 in 10.0 mi Calm Calm - N/A   Clear
4:35 AM 82.4 °F 83.4 °F 62.6 °F 51% 29.96 in 10.0 mi Calm Calm - N/A   Clear
4:55 AM 82.4 °F 83.4 °F 62.6 °F 51% 29.96 in 10.0 mi East 3.5 mph - N/A   Clear
5:15 AM 80.6 °F 81.8 °F 62.6 °F 54% 29.96 in 10.0 mi ESE 5.8 mph - N/A   Clear
5:35 AM 80.6 °F 81.8 °F 62.6 °F 54% 29.96 in 10.0 mi ESE 6.9 mph - N/A   Clear
5:55 AM 80.6 °F 81.5 °F 60.8 °F 51% 29.96 in 10.0 mi ESE 6.9 mph - N/A   Clear
6:35 AM 80.6 °F 81.1 °F 59.0 °F 48% 29.98 in 10.0 mi ESE 5.8 mph - N/A   Clear
6:55 AM 82.4 °F 82.5 °F 59.0 °F 45% 29.99 in 10.0 mi ESE 5.8 mph - N/A   Clear
7:15 AM 84.2 °F 83.8 °F 59.0 °F 42% 29.99 in 10.0 mi East 5.8 mph - N/A   Clear
7:35 AM 87.8 °F 86.1 °F 55.4 °F 33% 29.99 in 10.0 mi ENE 4.6 mph - N/A   Clear
7:55 AM 91.4 °F - 51.8 °F 26% 29.99 in 10.0 mi ENE 5.8 mph - N/A   Clear
8:15 AM 93.2 °F - 48.2 °F 21% 29.99 in 10.0 mi NE 10.4 mph - N/A   Clear
8:35 AM 95.0 °F - 48.2 °F 20% 30.00 in 10.0 mi NE 8.1 mph - N/A   Clear
8:55 AM 95.0 °F - 50.0 °F 22% 30.00 in 10.0 mi Variable 4.6 mph - N/A   Clear
9:15 AM 98.6 °F - 46.4 °F 17% 30.00 in 10.0 mi ENE 8.1 mph 13.8 mph N/A   Clear
9:55 AM 100.4 °F - 44.6 °F 15% 29.99 in 10.0 mi Calm Calm - N/A   Clear
10:15 AM 100.4 °F - 44.6 °F 15% 29.99 in 10.0 mi SSE 6.9 mph - N/A   Clear
10:35 AM 100.4 °F - 44.6 °F 15% 29.99 in 10.0 mi South 5.8 mph - N/A   Clear
10:55 AM 102.2 °F - 44.6 °F 14% 29.98 in 10.0 mi South 9.2 mph - N/A   Clear
11:15 AM 100.4 °F - 51.8 °F 20% 29.98 in 10.0 mi SW 9.2 mph 15.0 mph N/A   Clear
11:35 AM 100.4 °F - 51.8 °F 20% 29.97 in 10.0 mi Variable 4.6 mph 13.8 mph N/A   Clear
11:55 AM 102.2 °F - 51.8 °F 18% 29.97 in 10.0 mi SSW 8.1 mph - N/A   Clear
12:15 PM 102.2 °F - 51.8 °F 18% 29.96 in 10.0 mi Variable 6.9 mph 13.8 mph N/A   Clear
12:35 PM 104.0 °F - 50.0 °F 16% 29.96 in 10.0 mi Variable 6.9 mph 17.3 mph N/A   Clear
12:55 PM 104.0 °F - 48.2 °F 15% 29.96 in 10.0 mi Calm Calm 12.7 mph N/A   Clear
1:15 PM 104.0 °F - 48.2 °F 15% 29.95 in 10.0 mi SSW 10.4 mph 17.3 mph N/A   Clear
1:35 PM 104.0 °F - 48.2 °F 15% 29.94 in 10.0 mi SW 10.4 mph - N/A   Clear
1:55 PM 104.0 °F - 48.2 °F 15% 29.93 in 10.0 mi WSW 12.7 mph - N/A   Clear
2:15 PM 104.0 °F - 46.4 °F 14% 29.92 in 10.0 mi WSW 9.2 mph - N/A   Clear
2:35 PM 105.8 °F - 46.4 °F 14% 29.91 in 10.0 mi WNW 8.1 mph - N/A   Clear
2:55 PM 105.8 °F - 42.8 °F 12% 29.90 in 10.0 mi Variable 6.9 mph 16.1 mph N/A   Clear
3:15 PM 105.8 °F - 44.6 °F 13% 29.89 in 10.0 mi SW 13.8 mph 21.9 mph N/A   Clear
3:35 PM 105.8 °F - 42.8 °F 12% 29.89 in 10.0 mi SSW 11.5 mph - N/A   Clear
3:55 PM 105.8 °F - 42.8 °F 12% 29.88 in 10.0 mi SSW 13.8 mph - N/A   Clear
4:15 PM 105.8 °F - 42.8 °F 12% 29.88 in 10.0 mi WSW 13.8 mph 19.6 mph N/A   Clear
4:35 PM 105.8 °F - 42.8 °F 12% 29.88 in 10.0 mi SW 16.1 mph - N/A   Clear
4:55 PM 104.0 °F - 42.8 °F 12% 29.87 in 10.0 mi SW 12.7 mph - N/A   Clear
5:15 PM 104.0 °F - 42.8 °F 12% 29.88 in 10.0 mi WSW 11.5 mph - N/A   Clear
5:35 PM 102.2 °F - 44.6 °F 14% 29.88 in 10.0 mi WSW 10.4 mph - N/A   Clear
5:55 PM 102.2 °F - 44.6 °F 14% 29.88 in 10.0 mi WSW 10.4 mph - N/A   Clear
6:15 PM 102.2 °F - 46.4 °F 15% 29.88 in 10.0 mi West 6.9 mph - N/A   Clear
6:35 PM 100.4 °F - 46.4 °F 16% 29.88 in 10.0 mi West 6.9 mph - N/A   Clear
6:55 PM 96.8 °F - 48.2 °F 19% 29.89 in 10.0 mi West 5.8 mph - N/A   Clear
7:15 PM 95.0 °F - 48.2 °F 20% 29.90 in 10.0 mi WNW 5.8 mph - N/A   Clear
7:35 PM 95.0 °F - 46.4 °F 19% 29.91 in 10.0 mi West 4.6 mph - N/A   Clear
7:55 PM 93.2 °F - 48.2 °F 21% 29.91 in 10.0 mi SW 4.6 mph - N/A   Clear
8:15 PM 93.2 °F - 50.0 °F 23% 29.93 in 10.0 mi WSW 6.9 mph - N/A   Clear
8:35 PM 93.2 °F - 50.0 °F 23% 29.94 in 10.0 mi West 5.8 mph - N/A   Clear
8:55 PM 91.4 °F - 51.8 °F 26% 29.94 in 10.0 mi SW 4.6 mph - N/A   Clear
9:15 PM 89.6 °F 87.3 °F 53.6 °F 29% 29.95 in 9.0 mi South 5.8 mph - N/A   Clear
9:35 PM 89.6 °F 87.7 °F 55.4 °F 31% 29.95 in 10.0 mi South 4.6 mph - N/A   Clear
9:55 PM 89.6 °F 87.7 °F 55.4 °F 31% 29.96 in 10.0 mi South 6.9 mph - N/A   Clear
10:15 PM 89.6 °F 87.3 °F 53.6 °F 29% 29.96 in 10.0 mi South 8.1 mph - N/A   Clear
10:35 PM 89.6 °F 87.3 °F 53.6 °F 29% 29.96 in 10.0 mi South 6.9 mph - N/A   Clear
10:55 PM 89.6 °F 87.3 °F 53.6 °F 29% 29.97 in 10.0 mi South 5.8 mph - N/A   Clear
11:15 PM 89.6 °F 87.3 °F 53.6 °F 29% 29.97 in 10.0 mi SSE 6.9 mph - N/A   Clear
11:35 PM 87.8 °F 86.1 °F 55.4 °F 33% 29.97 in 10.0 mi SSE 3.5 mph - N/A   Clear
11:55 PM 87.8 °F 86.1 °F 55.4 °F 33% 29.97 in 10.0 mi South 9.2 mph - N/A   Clear